contact:dominique.lefevre@mio.osupytheas.fr, maurice.libes@osupytheas.fr, didier.mallarino@osupytheas.fr
Project:EMSO http://www.emso-fr.org/EMSO-France
Depth: 2436.0 m
Title:EMSO Ligure Ouest : Data MII capteur MICROCAT
DateTime_Computer,Latitude,Longitude,Temperature,Conductivity,Pressure,DateTime_Instrument
DateTime_Computer,Latitude,Longitude,degC,S m-1,dbar,DateTime_Instrument
2022-12-12T00:01:07Z,42.805,6.029,13.3025,4.60102,2470.661,2022-12-12T02:07:05Z
2022-12-12T00:04:10Z,42.805,6.029,13.3024,4.60115,2470.633,2022-12-12T02:10:08Z
2022-12-12T00:07:13Z,42.805,6.029,13.3025,4.60099,2470.624,2022-12-12T02:13:11Z
2022-12-12T00:10:16Z,42.805,6.029,13.3018,4.60102,2470.646,2022-12-12T02:16:14Z
2022-12-12T00:13:19Z,42.805,6.029,13.3024,4.60108,2470.624,2022-12-12T02:19:17Z
2022-12-12T00:16:22Z,42.805,6.029,13.3026,4.60104,2470.661,2022-12-12T02:22:20Z
2022-12-12T00:19:25Z,42.805,6.029,13.3031,4.60113,2470.624,2022-12-12T02:25:24Z
2022-12-12T00:22:29Z,42.805,6.029,13.3031,4.60151,2470.6,2022-12-12T02:28:27Z
2022-12-12T00:25:32Z,42.805,6.029,13.3029,4.60092,2470.624,2022-12-12T02:31:30Z
2022-12-12T00:28:35Z,42.805,6.029,13.3036,4.60091,2470.624,2022-12-12T02:34:33Z
2022-12-12T00:31:38Z,42.805,6.029,13.3018,4.60099,2470.614,2022-12-12T02:37:36Z
2022-12-12T00:34:41Z,42.805,6.029,13.3018,4.60112,2470.586,2022-12-12T02:40:39Z
2022-12-12T00:37:44Z,42.805,6.029,13.3022,4.60109,2470.624,2022-12-12T02:43:42Z
2022-12-12T00:40:47Z,42.805,6.029,13.3019,4.60108,2470.637,2022-12-12T02:46:45Z
2022-12-12T00:43:50Z,42.805,6.029,13.3021,4.60104,2470.6,2022-12-12T02:49:48Z
2022-12-12T00:46:53Z,42.805,6.029,13.3015,4.60097,2470.6,2022-12-12T02:52:51Z
2022-12-12T00:49:56Z,42.805,6.029,13.3024,4.60112,2470.637,2022-12-12T02:55:54Z
2022-12-12T00:52:59Z,42.805,6.029,13.3026,4.60086,2470.577,2022-12-12T02:58:58Z
2022-12-12T00:56:02Z,42.805,6.029,13.3017,4.60097,2470.614,2022-12-12T03:02:01Z
2022-12-12T00:59:06Z,42.805,6.029,13.3016,4.60100,2470.577,2022-12-12T03:05:04Z
2022-12-12T01:02:09Z,42.805,6.029,13.3021,4.60119,2470.624,2022-12-12T03:08:07Z
2022-12-12T01:05:12Z,42.805,6.029,13.3018,4.60105,2470.577,2022-12-12T03:11:10Z
2022-12-12T01:08:15Z,42.805,6.029,13.3024,4.60106,2470.624,2022-12-12T03:14:13Z
2022-12-12T01:11:18Z,42.805,6.029,13.3024,4.60132,2470.6,2022-12-12T03:17:16Z
2022-12-12T01:14:21Z,42.805,6.029,13.3030,4.60122,2470.6,2022-12-12T03:20:19Z
2022-12-12T01:17:24Z,42.805,6.029,13.3019,4.60115,2470.591,2022-12-12T03:23:22Z
2022-12-12T01:20:27Z,42.805,6.029,13.3021,4.60117,2470.614,2022-12-12T03:26:25Z
2022-12-12T01:23:30Z,42.805,6.029,13.3020,4.60106,2470.577,2022-12-12T03:29:28Z
2022-12-12T01:26:33Z,42.805,6.029,13.3025,4.60092,2470.614,2022-12-12T03:32:31Z
2022-12-12T01:29:36Z,42.805,6.029,13.3021,4.60114,2470.6,2022-12-12T03:35:35Z
2022-12-12T01:32:39Z,42.805,6.029,13.3031,4.60144,2470.577,2022-12-12T03:38:38Z
2022-12-12T01:35:43Z,42.805,6.029,13.3028,4.60104,2470.637,2022-12-12T03:41:41Z
2022-12-12T01:38:46Z,42.805,6.029,13.3025,4.60119,2470.6,2022-12-12T03:44:44Z
2022-12-12T01:41:49Z,42.805,6.029,13.3026,4.60116,2470.591,2022-12-12T03:47:47Z
2022-12-12T01:44:52Z,42.805,6.029,13.3023,4.60123,2470.637,2022-12-12T03:50:50Z
2022-12-12T01:47:55Z,42.805,6.029,13.3028,4.60097,2470.553,2022-12-12T03:53:53Z
2022-12-12T01:50:58Z,42.805,6.029,13.3026,4.60098,2470.591,2022-12-12T03:56:56Z
2022-12-12T01:54:01Z,42.805,6.029,13.3021,4.60132,2470.591,2022-12-12T03:59:59Z
2022-12-12T01:57:04Z,42.805,6.029,13.3021,4.60105,2470.567,2022-12-12T04:03:02Z
2022-12-12T02:00:07Z,42.805,6.029,13.3024,4.60152,2470.591,2022-12-12T04:06:05Z
2022-12-12T02:03:10Z,42.805,6.029,13.3024,4.60126,2470.614,2022-12-12T04:09:09Z
2022-12-12T02:06:13Z,42.805,6.029,13.3027,4.60137,2470.624,2022-12-12T04:12:12Z
2022-12-12T02:09:16Z,42.805,6.029,13.3025,4.60143,2470.591,2022-12-12T04:15:15Z
2022-12-12T02:12:20Z,42.805,6.029,13.3030,4.60157,2470.553,2022-12-12T04:18:18Z
2022-12-12T02:15:23Z,42.805,6.029,13.3029,4.60167,2470.591,2022-12-12T04:21:21Z
2022-12-12T02:18:26Z,42.805,6.029,13.3034,4.60128,2470.6,2022-12-12T04:24:24Z
2022-12-12T02:21:29Z,42.805,6.029,13.3021,4.60127,2470.614,2022-12-12T04:27:27Z
2022-12-12T02:24:32Z,42.805,6.029,13.3028,4.60135,2470.591,2022-12-12T04:30:30Z
2022-12-12T02:27:35Z,42.805,6.029,13.3051,4.60129,2470.577,2022-12-12T04:33:33Z
2022-12-12T02:30:38Z,42.805,6.029,13.3029,4.60131,2470.553,2022-12-12T04:36:36Z
2022-12-12T02:33:41Z,42.805,6.029,13.3047,4.60129,2470.6,2022-12-12T04:39:39Z
2022-12-12T02:36:44Z,42.805,6.029,13.3043,4.60135,2470.6,2022-12-12T04:42:43Z
2022-12-12T02:39:47Z,42.805,6.029,13.3026,4.60125,2470.6,2022-12-12T04:45:46Z
2022-12-12T02:42:50Z,42.805,6.029,13.3042,4.60150,2470.6,2022-12-12T04:48:49Z
2022-12-12T02:45:54Z,42.805,6.029,13.3037,4.60169,2470.6,2022-12-12T04:51:52Z
2022-12-12T02:48:57Z,42.805,6.029,13.3051,4.60118,2470.577,2022-12-12T04:54:55Z
2022-12-12T02:52:00Z,42.805,6.029,13.3030,4.60110,2470.577,2022-12-12T04:57:58Z
2022-12-12T02:55:03Z,42.805,6.029,13.3044,4.60138,2470.614,2022-12-12T05:01:01Z
2022-12-12T02:58:06Z,42.805,6.029,13.3042,4.60135,2470.591,2022-12-12T05:04:04Z
2022-12-12T03:01:09Z,42.805,6.029,13.3043,4.60127,2470.591,2022-12-12T05:07:07Z
2022-12-12T03:04:12Z,42.805,6.029,13.3046,4.60137,2470.577,2022-12-12T05:10:10Z
2022-12-12T03:07:15Z,42.805,6.029,13.3040,4.60125,2470.553,2022-12-12T05:13:13Z
2022-12-12T03:10:18Z,42.805,6.029,13.3029,4.60142,2470.553,2022-12-12T05:16:16Z
2022-12-12T03:13:21Z,42.805,6.029,13.3025,4.60137,2470.577,2022-12-12T05:19:20Z
2022-12-12T03:16:24Z,42.805,6.029,13.3026,4.60104,2470.591,2022-12-12T05:22:23Z
2022-12-12T03:19:27Z,42.805,6.029,13.3026,4.60120,2470.591,2022-12-12T05:25:26Z
2022-12-12T03:22:31Z,42.805,6.029,13.3032,4.60150,2470.577,2022-12-12T05:28:29Z
2022-12-12T03:25:34Z,42.805,6.029,13.3024,4.60133,2470.567,2022-12-12T05:31:32Z
2022-12-12T03:28:37Z,42.805,6.029,13.3040,4.60138,2470.6,2022-12-12T05:34:35Z
2022-12-12T03:31:40Z,42.805,6.029,13.3021,4.60123,2470.591,2022-12-12T05:37:38Z
2022-12-12T03:34:43Z,42.805,6.029,13.3030,4.60135,2470.577,2022-12-12T05:40:41Z
2022-12-12T03:37:46Z,42.805,6.029,13.3031,4.60121,2470.577,2022-12-12T05:43:44Z
2022-12-12T03:40:49Z,42.805,6.029,13.3028,4.60138,2470.591,2022-12-12T05:46:47Z
2022-12-12T03:43:52Z,42.805,6.029,13.3015,4.60112,2470.577,2022-12-12T05:49:50Z
2022-12-12T03:46:55Z,42.805,6.029,13.3025,4.60087,2470.577,2022-12-12T05:52:54Z
2022-12-12T03:49:58Z,42.805,6.029,13.3018,4.60135,2470.591,2022-12-12T05:55:57Z
2022-12-12T03:53:01Z,42.805,6.029,13.3027,4.60095,2470.591,2022-12-12T05:59:00Z
2022-12-12T03:56:04Z,42.805,6.029,13.3024,4.60102,2470.591,2022-12-12T06:02:03Z
2022-12-12T03:59:08Z,42.805,6.029,13.3031,4.60104,2470.577,2022-12-12T06:05:06Z
2022-12-12T04:02:11Z,42.805,6.029,13.3027,4.60110,2470.614,2022-12-12T06:08:09Z
2022-12-12T04:05:14Z,42.805,6.029,13.3033,4.60138,2470.591,2022-12-12T06:11:12Z
2022-12-12T04:08:17Z,42.805,6.029,13.3036,4.60152,2470.553,2022-12-12T06:14:15Z
2022-12-12T04:11:20Z,42.805,6.029,13.3051,4.60137,2470.591,2022-12-12T06:17:18Z
2022-12-12T04:14:23Z,42.805,6.029,13.3042,4.60115,2470.591,2022-12-12T06:20:21Z
2022-12-12T04:17:26Z,42.805,6.029,13.3039,4.60127,2470.577,2022-12-12T06:23:24Z
2022-12-12T04:20:29Z,42.805,6.029,13.3037,4.60121,2470.614,2022-12-12T06:26:27Z
2022-12-12T04:23:32Z,42.805,6.029,13.3030,4.60124,2470.6,2022-12-12T06:29:31Z
2022-12-12T04:26:35Z,42.805,6.029,13.3021,4.60110,2470.614,2022-12-12T06:32:34Z
2022-12-12T04:29:38Z,42.805,6.029,13.3043,4.60145,2470.591,2022-12-12T06:35:37Z
2022-12-12T04:32:42Z,42.805,6.029,13.3048,4.60140,2470.6,2022-12-12T06:38:40Z
2022-12-12T04:35:45Z,42.805,6.029,13.3031,4.60140,2470.614,2022-12-12T06:41:43Z
2022-12-12T04:38:48Z,42.805,6.029,13.3040,4.60116,2470.591,2022-12-12T06:44:46Z
2022-12-12T04:41:51Z,42.805,6.029,13.3039,4.60103,2470.614,2022-12-12T06:47:49Z
2022-12-12T04:44:54Z,42.805,6.029,13.3032,4.60116,2470.591,2022-12-12T06:50:52Z
2022-12-12T04:47:57Z,42.805,6.029,13.3025,4.60110,2470.591,2022-12-12T06:53:55Z
2022-12-12T04:51:00Z,42.805,6.029,13.3026,4.60112,2470.624,2022-12-12T06:56:58Z
2022-12-12T04:54:03Z,42.805,6.029,13.3021,4.60103,2470.553,2022-12-12T07:00:01Z
2022-12-12T04:57:06Z,42.805,6.029,13.3026,4.60125,2470.6,2022-12-12T07:03:04Z
2022-12-12T05:00:09Z,42.805,6.029,13.3024,4.60104,2470.614,2022-12-12T07:06:08Z
2022-12-12T05:03:12Z,42.805,6.029,13.3021,4.60102,2470.6,2022-12-12T07:09:11Z
2022-12-12T05:06:15Z,42.805,6.029,13.3020,4.60134,2470.637,2022-12-12T07:12:14Z
2022-12-12T05:09:18Z,42.805,6.029,13.3024,4.60151,2470.6,2022-12-12T07:15:17Z
2022-12-12T05:12:22Z,42.805,6.029,13.3024,4.60113,2470.6,2022-12-12T07:18:20Z
2022-12-12T05:15:25Z,42.805,6.029,13.3047,4.60152,2470.6,2022-12-12T07:21:23Z
2022-12-12T05:18:28Z,42.805,6.029,13.3031,4.60130,2470.6,2022-12-12T07:24:26Z
2022-12-12T05:21:31Z,42.805,6.029,13.3035,4.60117,2470.637,2022-12-12T07:27:29Z
2022-12-12T05:24:34Z,42.805,6.029,13.3025,4.60102,2470.624,2022-12-12T07:30:32Z
2022-12-12T05:27:37Z,42.805,6.029,13.3031,4.60117,2470.624,2022-12-12T07:33:35Z
2022-12-12T05:30:40Z,42.805,6.029,13.3026,4.60117,2470.624,2022-12-12T07:36:38Z
2022-12-12T05:33:43Z,42.805,6.029,13.3026,4.60119,2470.6,2022-12-12T07:39:42Z
2022-12-12T05:36:46Z,42.805,6.029,13.3028,4.60110,2470.646,2022-12-12T07:42:45Z
2022-12-12T05:39:49Z,42.805,6.029,13.3039,4.60126,2470.637,2022-12-12T07:45:48Z
2022-12-12T05:42:52Z,42.805,6.029,13.3027,4.60139,2470.637,2022-12-12T07:48:51Z
2022-12-12T05:45:56Z,42.805,6.029,13.3035,4.60123,2470.624,2022-12-12T07:51:54Z
2022-12-12T05:48:59Z,42.805,6.029,13.3022,4.60105,2470.646,2022-12-12T07:54:57Z
2022-12-12T05:52:02Z,42.805,6.029,13.3033,4.60127,2470.624,2022-12-12T07:58:00Z
2022-12-12T05:55:05Z,42.805,6.029,13.3024,4.60127,2470.6,2022-12-12T08:01:03Z
2022-12-12T05:58:08Z,42.805,6.029,13.3041,4.60119,2470.624,2022-12-12T08:04:06Z
2022-12-12T06:01:11Z,42.805,6.029,13.3029,4.60125,2470.624,2022-12-12T08:07:09Z
2022-12-12T06:04:14Z,42.805,6.029,13.3038,4.60139,2470.637,2022-12-12T08:10:12Z
2022-12-12T06:07:17Z,42.805,6.029,13.3022,4.60114,2470.614,2022-12-12T08:13:15Z
2022-12-12T06:10:20Z,42.805,6.029,13.3042,4.60134,2470.637,2022-12-12T08:16:19Z
2022-12-12T06:13:23Z,42.805,6.029,13.3023,4.60093,2470.646,2022-12-12T08:19:22Z
2022-12-12T06:16:26Z,42.805,6.029,13.3021,4.60110,2470.661,2022-12-12T08:22:25Z
2022-12-12T06:19:29Z,42.805,6.029,13.3022,4.60126,2470.624,2022-12-12T08:25:28Z
2022-12-12T06:22:32Z,42.805,6.029,13.3029,4.60143,2470.661,2022-12-12T08:28:31Z
2022-12-12T06:25:36Z,42.805,6.029,13.3019,4.60111,2470.684,2022-12-12T08:31:34Z
2022-12-12T06:28:39Z,42.805,6.029,13.3019,4.60126,2470.646,2022-12-12T08:34:37Z
2022-12-12T06:31:42Z,42.805,6.029,13.3024,4.60114,2470.646,2022-12-12T08:37:40Z
2022-12-12T06:34:45Z,42.805,6.029,13.3015,4.60102,2470.684,2022-12-12T08:40:43Z
2022-12-12T06:37:48Z,42.805,6.029,13.3032,4.60109,2470.684,2022-12-12T08:43:46Z
2022-12-12T06:40:51Z,42.805,6.029,13.3020,4.60097,2470.684,2022-12-12T08:46:49Z
2022-12-12T06:43:54Z,42.805,6.029,13.3023,4.60114,2470.67,2022-12-12T08:49:52Z
2022-12-12T06:46:57Z,42.805,6.029,13.3023,4.60123,2470.707,2022-12-12T08:52:56Z
2022-12-12T06:50:00Z,42.805,6.029,13.3024,4.60114,2470.67,2022-12-12T08:55:59Z
2022-12-12T06:53:03Z,42.805,6.029,13.3036,4.60109,2470.646,2022-12-12T08:59:02Z
2022-12-12T06:56:06Z,42.805,6.029,13.3035,4.60121,2470.67,2022-12-12T09:02:05Z
2022-12-12T06:59:10Z,42.805,6.029,13.3037,4.60162,2470.707,2022-12-12T09:05:08Z
2022-12-12T07:02:13Z,42.805,6.029,13.3035,4.60142,2470.661,2022-12-12T09:08:11Z
2022-12-12T07:05:16Z,42.805,6.029,13.3045,4.60131,2470.67,2022-12-12T09:11:14Z
2022-12-12T07:08:19Z,42.805,6.029,13.3017,4.60097,2470.67,2022-12-12T09:14:17Z
2022-12-12T07:11:22Z,42.805,6.029,13.3025,4.60127,2470.693,2022-12-12T09:17:20Z
2022-12-12T07:14:25Z,42.805,6.029,13.3029,4.60107,2470.693,2022-12-12T09:20:23Z
2022-12-12T07:17:28Z,42.805,6.029,13.3022,4.60128,2470.73,2022-12-12T09:23:26Z
2022-12-12T07:20:31Z,42.805,6.029,13.3029,4.60134,2470.707,2022-12-12T09:26:29Z
2022-12-12T07:23:34Z,42.805,6.029,13.3034,4.60140,2470.707,2022-12-12T09:29:33Z
2022-12-12T07:26:37Z,42.805,6.029,13.3021,4.60124,2470.707,2022-12-12T09:32:36Z
2022-12-12T07:29:40Z,42.805,6.029,13.3028,4.60090,2470.717,2022-12-12T09:35:39Z
2022-12-12T07:32:43Z,42.805,6.029,13.3030,4.60116,2470.717,2022-12-12T09:38:42Z
2022-12-12T07:35:46Z,42.805,6.029,13.3032,4.60106,2470.707,2022-12-12T09:41:45Z
2022-12-12T07:38:50Z,42.805,6.029,13.3030,4.60104,2470.73,2022-12-12T09:44:48Z
2022-12-12T07:41:53Z,42.805,6.029,13.3029,4.60097,2470.777,2022-12-12T09:47:51Z
2022-12-12T07:44:56Z,42.805,6.029,13.3023,4.60112,2470.693,2022-12-12T09:50:54Z
2022-12-12T07:47:59Z,42.805,6.029,13.3025,4.60104,2470.717,2022-12-12T09:53:57Z
2022-12-12T07:51:02Z,42.805,6.029,13.3029,4.60128,2470.717,2022-12-12T09:57:00Z
2022-12-12T07:54:05Z,42.805,6.029,13.3031,4.60129,2470.73,2022-12-12T10:00:03Z
2022-12-12T07:57:08Z,42.805,6.029,13.3028,4.60114,2470.717,2022-12-12T10:03:06Z
2022-12-12T08:00:11Z,42.805,6.029,13.3029,4.60121,2470.74,2022-12-12T10:06:10Z
2022-12-12T08:03:14Z,42.805,6.029,13.3029,4.60160,2470.717,2022-12-12T10:09:13Z
2022-12-12T08:06:17Z,42.805,6.029,13.3035,4.60145,2470.754,2022-12-12T10:12:16Z
2022-12-12T08:09:20Z,42.805,6.029,13.3034,4.60137,2470.73,2022-12-12T10:15:19Z
2022-12-12T08:12:24Z,42.805,6.029,13.3037,4.60116,2470.74,2022-12-12T10:18:22Z
2022-12-12T08:15:27Z,42.805,6.029,13.3031,4.60100,2470.763,2022-12-12T10:21:25Z
2022-12-12T08:18:30Z,42.805,6.029,13.3025,4.60132,2470.754,2022-12-12T10:24:28Z
2022-12-12T08:21:33Z,42.805,6.029,13.3023,4.60112,2470.74,2022-12-12T10:27:31Z
2022-12-12T08:24:36Z,42.805,6.029,13.3021,4.60087,2470.74,2022-12-12T10:30:34Z
2022-12-12T08:27:39Z,42.805,6.029,13.3023,4.60102,2470.754,2022-12-12T10:33:37Z
2022-12-12T08:30:42Z,42.805,6.029,13.3029,4.60101,2470.787,2022-12-12T10:36:40Z
2022-12-12T08:33:45Z,42.805,6.029,13.3042,4.60119,2470.74,2022-12-12T10:39:44Z
2022-12-12T08:36:48Z,42.805,6.029,13.3026,4.60106,2470.74,2022-12-12T10:42:47Z
2022-12-12T08:39:51Z,42.805,6.029,13.3024,4.60117,2470.754,2022-12-12T10:45:50Z
2022-12-12T08:42:54Z,42.805,6.029,13.3026,4.60122,2470.763,2022-12-12T10:48:53Z
2022-12-12T08:45:57Z,42.805,6.029,13.3021,4.60104,2470.73,2022-12-12T10:51:56Z
2022-12-12T08:49:01Z,42.805,6.029,13.3028,4.60125,2470.777,2022-12-12T10:54:59Z
2022-12-12T08:52:04Z,42.805,6.029,13.3036,4.60105,2470.777,2022-12-12T10:58:02Z
2022-12-12T08:55:07Z,42.805,6.029,13.3032,4.60128,2470.777,2022-12-12T11:01:05Z
2022-12-12T08:58:10Z,42.805,6.029,13.3056,4.60126,2470.74,2022-12-12T11:04:08Z
2022-12-12T09:01:13Z,42.805,6.029,13.3031,4.60097,2470.717,2022-12-12T11:07:11Z
2022-12-12T09:04:16Z,42.805,6.029,13.3020,4.60114,2470.763,2022-12-12T11:10:14Z
2022-12-12T09:07:19Z,42.805,6.029,13.3022,4.60108,2470.74,2022-12-12T11:13:18Z
2022-12-12T09:10:22Z,42.805,6.029,13.3032,4.60094,2470.763,2022-12-12T11:16:21Z
2022-12-12T09:13:25Z,42.805,6.029,13.3030,4.60128,2470.8,2022-12-12T11:19:24Z
2022-12-12T09:16:28Z,42.805,6.029,13.3021,4.60135,2470.763,2022-12-12T11:22:27Z
2022-12-12T09:19:31Z,42.805,6.029,13.3025,4.60120,2470.763,2022-12-12T11:25:30Z
2022-12-12T09:22:35Z,42.805,6.029,13.3021,4.60110,2470.763,2022-12-12T11:28:33Z
2022-12-12T09:25:38Z,42.805,6.029,13.3026,4.60097,2470.763,2022-12-12T11:31:36Z
2022-12-12T09:28:41Z,42.805,6.029,13.3027,4.60108,2470.787,2022-12-12T11:34:39Z
2022-12-12T09:31:44Z,42.805,6.029,13.3031,4.60104,2470.777,2022-12-12T11:37:42Z
2022-12-12T09:34:47Z,42.805,6.029,13.3023,4.60101,2470.763,2022-12-12T11:40:45Z
2022-12-12T09:37:50Z,42.805,6.029,13.3034,4.60126,2470.763,2022-12-12T11:43:48Z
2022-12-12T09:40:53Z,42.805,6.029,13.3028,4.60117,2470.763,2022-12-12T11:46:52Z
2022-12-12T09:43:56Z,42.805,6.029,13.3022,4.60114,2470.763,2022-12-12T11:49:55Z
2022-12-12T09:46:59Z,42.805,6.029,13.3021,4.60110,2470.777,2022-12-12T11:52:58Z
2022-12-12T09:50:02Z,42.805,6.029,13.3029,4.60107,2470.763,2022-12-12T11:56:01Z
2022-12-12T09:53:05Z,42.805,6.029,13.3022,4.60104,2470.777,2022-12-12T11:59:04Z
2022-12-12T09:56:09Z,42.805,6.029,13.3023,4.60100,2470.8,2022-12-12T12:02:07Z
2022-12-12T09:59:12Z,42.805,6.029,13.3024,4.60080,2470.8,2022-12-12T12:05:10Z
2022-12-12T10:02:15Z,42.805,6.029,13.3029,4.60123,2470.777,2022-12-12T12:08:13Z
2022-12-12T10:05:18Z,42.805,6.029,13.3040,4.60116,2470.74,2022-12-12T12:11:16Z
2022-12-12T10:08:21Z,42.805,6.029,13.3024,4.60097,2470.763,2022-12-12T12:14:19Z
2022-12-12T10:11:24Z,42.805,6.029,13.3026,4.60107,2470.777,2022-12-12T12:17:22Z
2022-12-12T10:14:27Z,42.805,6.029,13.3021,4.60109,2470.73,2022-12-12T12:20:26Z
2022-12-12T10:17:30Z,42.805,6.029,13.3021,4.60115,2470.763,2022-12-12T12:23:29Z
2022-12-12T10:20:33Z,42.805,6.029,13.3024,4.60122,2470.824,2022-12-12T12:26:32Z
2022-12-12T10:23:36Z,42.805,6.029,13.3024,4.60107,2470.763,2022-12-12T12:29:35Z
2022-12-12T10:26:39Z,42.805,6.029,13.3024,4.60122,2470.777,2022-12-12T12:32:38Z
2022-12-12T10:29:43Z,42.805,6.029,13.3024,4.60104,2470.777,2022-12-12T12:35:41Z
2022-12-12T10:32:46Z,42.805,6.029,13.3043,4.60111,2470.787,2022-12-12T12:38:44Z
2022-12-12T10:35:49Z,42.805,6.029,13.3019,4.60103,2470.74,2022-12-12T12:41:47Z
2022-12-12T10:38:52Z,42.805,6.029,13.3028,4.60102,2470.763,2022-12-12T12:44:50Z
2022-12-12T10:41:55Z,42.805,6.029,13.3019,4.60110,2470.777,2022-12-12T12:47:53Z
2022-12-12T10:44:58Z,42.805,6.029,13.3019,4.60114,2470.74,2022-12-12T12:50:57Z
2022-12-12T10:48:01Z,42.805,6.029,13.3032,4.60122,2470.74,2022-12-12T12:54:00Z
2022-12-12T10:51:04Z,42.805,6.029,13.3029,4.60137,2470.73,2022-12-12T12:57:03Z
2022-12-12T10:54:07Z,42.805,6.029,13.3046,4.60142,2470.754,2022-12-12T13:00:06Z
2022-12-12T10:57:10Z,42.805,6.029,13.3027,4.60125,2470.754,2022-12-12T13:03:09Z
2022-12-12T11:00:13Z,42.805,6.029,13.3015,4.60107,2470.74,2022-12-12T13:06:12Z
2022-12-12T11:03:16Z,42.805,6.029,13.3022,4.60096,2470.74,2022-12-12T13:09:15Z
2022-12-12T11:06:20Z,42.805,6.029,13.3018,4.60104,2470.717,2022-12-12T13:12:18Z
2022-12-12T11:09:23Z,42.805,6.029,13.3024,4.60102,2470.717,2022-12-12T13:15:21Z
2022-12-12T11:12:26Z,42.805,6.029,13.3027,4.60108,2470.74,2022-12-12T13:18:24Z
2022-12-12T11:15:29Z,42.805,6.029,13.3021,4.60104,2470.73,2022-12-12T13:21:27Z
2022-12-12T11:18:32Z,42.805,6.029,13.3031,4.60110,2470.707,2022-12-12T13:24:30Z
2022-12-12T11:21:35Z,42.805,6.029,13.3026,4.60109,2470.717,2022-12-12T13:27:34Z
2022-12-12T11:24:38Z,42.805,6.029,13.3034,4.60126,2470.73,2022-12-12T13:30:37Z
2022-12-12T11:27:41Z,42.805,6.029,13.3036,4.60102,2470.73,2022-12-12T13:33:40Z
2022-12-12T11:30:44Z,42.805,6.029,13.3034,4.60116,2470.754,2022-12-12T13:36:43Z
2022-12-12T11:33:47Z,42.805,6.029,13.3037,4.60122,2470.717,2022-12-12T13:39:46Z
2022-12-12T11:36:50Z,42.805,6.029,13.3027,4.60132,2470.717,2022-12-12T13:42:49Z
2022-12-12T11:39:54Z,42.805,6.029,13.3034,4.60121,2470.74,2022-12-12T13:45:52Z
2022-12-12T11:42:57Z,42.805,6.029,13.3022,4.60117,2470.707,2022-12-12T13:48:55Z
2022-12-12T11:46:00Z,42.805,6.029,13.3036,4.60101,2470.754,2022-12-12T13:51:58Z
2022-12-12T11:49:03Z,42.805,6.029,13.3023,4.60126,2470.717,2022-12-12T13:55:01Z
2022-12-12T11:52:06Z,42.805,6.029,13.3020,4.60119,2470.73,2022-12-12T13:58:04Z
2022-12-12T11:55:09Z,42.805,6.029,13.3022,4.60098,2470.693,2022-12-12T14:01:08Z
2022-12-12T11:58:12Z,42.805,6.029,13.3031,4.60127,2470.707,2022-12-12T14:04:11Z
2022-12-12T12:01:15Z,42.805,6.029,13.3032,4.60150,2470.679,2022-12-12T14:07:14Z
2022-12-12T12:04:18Z,42.805,6.029,13.3026,4.60155,2470.693,2022-12-12T14:10:17Z
2022-12-12T12:07:21Z,42.805,6.029,13.3036,4.60113,2470.646,2022-12-12T14:13:20Z
2022-12-12T12:10:24Z,42.805,6.029,13.3028,4.60104,2470.684,2022-12-12T14:16:23Z
2022-12-12T12:13:28Z,42.805,6.029,13.3024,4.60097,2470.656,2022-12-12T14:19:26Z
2022-12-12T12:16:31Z,42.805,6.029,13.3021,4.60122,2470.67,2022-12-12T14:22:29Z
2022-12-12T12:19:34Z,42.805,6.029,13.3025,4.60109,2470.661,2022-12-12T14:25:32Z
2022-12-12T12:22:37Z,42.805,6.029,13.3026,4.60113,2470.67,2022-12-12T14:28:35Z
2022-12-12T12:25:40Z,42.805,6.029,13.3033,4.60119,2470.67,2022-12-12T14:31:38Z
2022-12-12T12:28:43Z,42.805,6.029,13.3030,4.60104,2470.661,2022-12-12T14:34:42Z
2022-12-12T12:31:46Z,42.805,6.029,13.3033,4.60117,2470.684,2022-12-12T14:37:45Z
2022-12-12T12:34:49Z,42.805,6.029,13.3020,4.60108,2470.684,2022-12-12T14:40:48Z
2022-12-12T12:37:52Z,42.805,6.029,13.3024,4.60118,2470.646,2022-12-12T14:43:51Z
2022-12-12T12:40:55Z,42.805,6.029,13.3027,4.60102,2470.624,2022-12-12T14:46:54Z
2022-12-12T12:43:58Z,42.805,6.029,13.3016,4.60122,2470.67,2022-12-12T14:49:57Z
2022-12-12T12:47:02Z,42.805,6.029,13.3029,4.60112,2470.646,2022-12-12T14:53:00Z
2022-12-12T12:50:05Z,42.805,6.029,13.3024,4.60097,2470.693,2022-12-12T14:56:03Z
2022-12-12T12:53:08Z,42.805,6.029,13.3024,4.60104,2470.67,2022-12-12T14:59:06Z
2022-12-12T12:56:11Z,42.805,6.029,13.3033,4.60140,2470.684,2022-12-12T15:02:09Z
2022-12-12T12:59:14Z,42.805,6.029,13.3055,4.60132,2470.684,2022-12-12T15:05:12Z
2022-12-12T13:02:17Z,42.805,6.029,13.3026,4.60129,2470.67,2022-12-12T15:08:16Z
2022-12-12T13:05:20Z,42.805,6.029,13.3038,4.60126,2470.624,2022-12-12T15:11:19Z
2022-12-12T13:08:23Z,42.805,6.029,13.3024,4.60102,2470.646,2022-12-12T15:14:22Z
2022-12-12T13:11:26Z,42.805,6.029,13.3029,4.60138,2470.624,2022-12-12T15:17:25Z
2022-12-12T13:14:29Z,42.805,6.029,13.3019,4.60093,2470.637,2022-12-12T15:20:28Z
2022-12-12T13:17:32Z,42.805,6.029,13.3026,4.60120,2470.624,2022-12-12T15:23:31Z
2022-12-12T13:20:35Z,42.805,6.029,13.3029,4.60121,2470.6,2022-12-12T15:26:34Z
2022-12-12T13:23:39Z,42.805,6.029,13.3050,4.60117,2470.6,2022-12-12T15:29:37Z
2022-12-12T13:26:42Z,42.805,6.029,13.3041,4.60149,2470.646,2022-12-12T15:32:40Z
2022-12-12T13:29:45Z,42.805,6.029,13.3043,4.60124,2470.6,2022-12-12T15:35:43Z
2022-12-12T13:32:48Z,42.805,6.029,13.3023,4.60117,2470.624,2022-12-12T15:38:46Z
2022-12-12T13:35:51Z,42.805,6.029,13.3036,4.60122,2470.637,2022-12-12T15:41:50Z
2022-12-12T13:38:54Z,42.805,6.029,13.3026,4.60122,2470.614,2022-12-12T15:44:53Z
2022-12-12T13:41:57Z,42.805,6.029,13.3032,4.60113,2470.624,2022-12-12T15:47:56Z
2022-12-12T13:45:00Z,42.805,6.029,13.3030,4.60111,2470.637,2022-12-12T15:50:59Z
2022-12-12T13:48:03Z,42.805,6.029,13.3039,4.60128,2470.637,2022-12-12T15:54:02Z
2022-12-12T13:51:06Z,42.805,6.029,13.3041,4.60142,2470.6,2022-12-12T15:57:05Z
2022-12-12T13:54:09Z,42.805,6.029,13.3034,4.60119,2470.614,2022-12-12T16:00:08Z
2022-12-12T13:57:13Z,42.805,6.029,13.3019,4.60097,2470.577,2022-12-12T16:03:11Z
2022-12-12T14:00:16Z,42.805,6.029,13.3024,4.60115,2470.591,2022-12-12T16:06:14Z
2022-12-12T14:03:19Z,42.805,6.029,13.3036,4.60122,2470.577,2022-12-12T16:09:17Z
2022-12-12T14:06:22Z,42.805,6.029,13.3030,4.60117,2470.6,2022-12-12T16:12:20Z
2022-12-12T14:09:25Z,42.805,6.029,13.3031,4.60104,2470.6,2022-12-12T16:15:24Z
2022-12-12T14:12:28Z,42.805,6.029,13.3024,4.60132,2470.637,2022-12-12T16:18:27Z
2022-12-12T14:15:31Z,42.805,6.029,13.3024,4.60115,2470.614,2022-12-12T16:21:30Z
2022-12-12T14:18:34Z,42.805,6.029,13.3024,4.60105,2470.624,2022-12-12T16:24:33Z
2022-12-12T14:21:37Z,42.805,6.029,13.3019,4.60120,2470.586,2022-12-12T16:27:36Z
2022-12-12T14:24:40Z,42.805,6.029,13.3021,4.60113,2470.624,2022-12-12T16:30:39Z
2022-12-12T14:27:43Z,42.805,6.029,13.3017,4.60088,2470.591,2022-12-12T16:33:42Z
2022-12-12T14:30:47Z,42.805,6.029,13.3015,4.60102,2470.591,2022-12-12T16:36:45Z
2022-12-12T14:33:50Z,42.805,6.029,13.3024,4.60103,2470.6,2022-12-12T16:39:48Z
2022-12-12T14:36:53Z,42.805,6.029,13.3019,4.60105,2470.6,2022-12-12T16:42:51Z
2022-12-12T14:39:56Z,42.805,6.029,13.3029,4.60131,2470.591,2022-12-12T16:45:55Z
2022-12-12T14:42:59Z,42.805,6.029,13.3022,4.60108,2470.577,2022-12-12T16:48:58Z
2022-12-12T14:46:02Z,42.805,6.029,13.3024,4.60104,2470.577,2022-12-12T16:52:01Z
2022-12-12T14:49:05Z,42.805,6.029,13.3018,4.60108,2470.614,2022-12-12T16:55:04Z
2022-12-12T14:52:08Z,42.805,6.029,13.3020,4.60091,2470.6,2022-12-12T16:58:07Z
2022-12-12T14:55:11Z,42.805,6.029,13.3019,4.60097,2470.577,2022-12-12T17:01:10Z
2022-12-12T14:58:14Z,42.805,6.029,13.3036,4.60096,2470.6,2022-12-12T17:04:13Z
2022-12-12T15:01:17Z,42.805,6.029,13.3021,4.60133,2470.553,2022-12-12T17:07:16Z